Date,TemperatureHighF,TemperatureAvgF,TemperatureLowF,DewpointHighF,DewpointAvgF,DewpointLowF,HumidityHigh,HumidityAvg,HumidityLow,PressureMaxIn,PressureMinIn,WindSpeedMaxMPH,WindSpeedAvgMPH,GustSpeedMaxMPH,PrecipitationSumIn
2013-1-1,67.7,59.3,53.3,58.7,54.5,51.1,95,85,67,30.21,30.04,16,10,23,0.00
2013-1-2,64.6,58.5,55.3,56.0,52.5,47.0,93,81,70,30.15,30.04,17,13,26,0.00
2013-1-3,65.1,57.7,54.5,57.1,52.9,49.8,97,84,66,30.15,30.05,19,15,30,0.00
2013-1-4,61.9,55.8,53.8,58.1,54.7,52.7,100,96,86,30.25,30.09,19,15,32,0.50
2013-1-5,61.7,55.3,52.6,57.5,53.8,50.5,99,95,80,30.30,30.15,17,12,21,0.64
2013-1-6,64.3,56.4,52.3,58.8,55.1,51.2,99,96,81,30.29,30.15,13,10,19,0.73
2013-1-7,65.0,57.4,52.4,56.7,53.2,39.2,100,87,59,30.19,30.05,14,10,21,0.20
2013-1-8,67.1,58.2,52.6,58.5,51.2,38.1,95,78,53,30.11,29.98,15,11,22,0.00
2013-1-9,67.5,58.5,55.3,60.2,56.7,54.1,99,94,74,30.10,29.98,12,9,18,0.41
2013-1-10,63.9,56.6,53.1,56.6,53.5,50.1,99,90,72,31.20,30.00,15,10,23,0.04
2013-1-11,69.6,58.7,52.7,59.2,52.9,46.6,97,82,60,30.03,29.93,10,6,19,0.00
2013-1-12,68.3,57.6,48.1,58.7,54.3,47.2,98,89,67,30.10,29.99,10,2,13,0.04
2013-1-13,68.6,60.5,55.2,60.4,57.4,54.7,99,90,67,30.09,29.98,12,3,20,0.70
2013-1-14,68.3,59.9,52.3,61.0,57.1,49.5,99,91,71,30.09,29.96,15,6,20,0.07
2013-1-15,64.9,57.7,49.1,61.0,56.7,47.8,100,97,84,30.04,29.95,10,3,17,0.65
2013-1-16,65.5,58.7,50.8,60.7,57.6,50.5,100,96,80,30.03,29.90,7,2,10,0.03
2013-1-17,63.3,57.0,51.1,57.7,55.5,50.3,100,95,79,30.00,29.89,13,4,22,0.01
2013-1-18,63.9,55.8,48.3,56.7,53.3,47.2,99,92,66,30.02,29.91,6,2,9,0.03
2013-1-19,66.8,54.9,45.8,57.6,51.9,44.7,99,91,48,30.09,29.96,12,3,21,0.00
2013-1-20,65.2,52.1,38.2,56.1,48.3,36.6,99,88,65,30.16,30.05,10,3,14,0.01
2013-1-21,68.5,58.0,48.1,55.8,47.2,25.7,98,70,25,30.20,30.10,21,14,31,0.01
2013-1-22,68.5,60.6,52.1,55.0,45.1,24.8,94,60,24,30.19,30.06,19,14,32,0.00
2013-1-23,66.5,56.9,50.7,58.8,53.9,47.7,99,90,74,30.18,30.05,17,10,25,0.00
2013-1-24,63.5,57.0,54.1,56.8,55.2,52.0,99,94,71,30.20,30.11,7,3,9,0.09
2013-1-25,63.1,56.2,47.9,57.4,54.9,46.8,100,96,77,30.20,30.09,8,2,12,0.09
2013-1-26,60.9,53.5,47.0,57.7,52.0,45.6,99,95,75,30.21,30.08,7,2,13,0.05
2013-1-27,59.2,54.6,49.0,57.8,53.9,48.3,100,97,90,30.14,30.02,15,5,20,0.18
2013-1-28,64.9,55.5,46.0,57.4,53.2,45.2,99,92,66,30.15,30.02,14,5,20,0.02
2013-1-29,64.4,57.9,54.6,59.8,57.2,54.3,100,98,83,30.11,30.00,17,5,21,0.80
2013-1-30,64.4,58.5,55.0,60.1,57.1,55.0,100,95,79,30.15,30.08,10,4,14,0.19
2013-1-31,66.0,59.1,55.2,60.4,57.0,53.5,100,93,79,31.19,30.08,15,7,22,0.01
2013-2-1,66.3,57.9,52.4,57.4,53.6,45.0,99,87,60,30.19,30.09,18,13,23,0.18
2013-2-2,71.8,57.6,48.1,58.2,48.4,12.6,98,74,17,30.24,30.14,17,11,22,0.00
2013-2-3,67.5,58.4,46.3,55.6,37.0,-0.6,96,57,7,30.21,30.09,22,13,29,0.00
2013-2-4,64.6,55.8,51.1,56.2,51.4,46.8,96,85,71,30.17,30.09,23,17,30,0.00
2013-2-5,62.1,55.6,52.3,57.0,52.6,49.5,98,90,77,30.18,30.07,19,13,25,0.05
2013-2-6,66.5,58.3,53.2,58.6,54.9,51.7,97,89,69,30.18,30.07,13,9,19,0.01
2013-2-7,62.3,57.3,53.2,59.6,55.8,51.1,99,95,87,30.21,30.11,11,7,17,0.99
2013-2-8,67.0,57.8,53.0,57.9,54.2,50.4,99,88,66,30.23,30.11,14,9,16,0.01
2013-2-9,66.7,57.2,49.7,58.2,53.2,46.1,99,87,67,30.24,30.11,13,8,18,0.08
2013-2-10,65.0,57.1,52.7,56.0,53.0,48.6,99,87,62,30.28,30.17,20,12,26,0.04
2013-2-11,66.4,57.5,52.5,55.4,51.5,42.5,100,82,44,30.29,30.16,18,13,27,0.06
2013-2-12,64.8,55.7,50.9,56.2,52.4,49.2,98,89,71,30.24,30.13,18,13,26,0.00
2013-2-13,62.3,53.2,49.2,53.1,49.1,46.7,95,86,69,30.20,30.11,17,11,24,0.00
2013-2-14,61.6,53.7,47.8,54.3,50.3,46.1,97,88,72,30.19,28.81,17,11,23,0.01
2013-2-15,61.1,54.2,48.7,59.7,52.2,45.5,98,93,80,30.22,30.12,14,7,20,0.68
2013-2-16,58.3,54.2,52.1,56.6,53.6,51.6,100,98,92,30.24,30.13,18,11,26,1.56
2013-2-17,57.6,53.1,50.0,56.3,51.7,47.3,99,95,81,30.28,30.14,18,12,26,1.02
2013-2-18,56.7,53.3,50.6,56.1,52.9,49.8,100,98,93,30.25,30.14,16,11,22,2.01
2013-2-19,60.9,53.9,50.3,55.2,52.1,49.5,100,94,70,30.24,30.12,19,13,31,0.26
2013-2-20,61.3,55.4,52.8,57.2,53.6,49.5,99,94,81,30.25,30.14,17,11,23,0.41
2013-2-21,69.2,58.2,53.0,60.5,54.7,49.4,99,89,65,30.24,30.11,12,8,18,1.06
2013-2-22,59.4,54.9,51.8,57.2,53.8,50.4,99,96,90,30.24,30.12,12,8,18,0.64
2013-2-23,61.6,54.4,51.8,57.0,53.5,50.0,100,97,81,30.25,30.13,12,8,18,0.92
2013-2-24,58.2,54.3,51.9,57.3,53.9,51.2,100,98,96,30.20,30.08,19,12,26,1.18
2013-2-25,63.7,55.6,51.3,58.4,53.8,50.0,100,94,76,30.24,30.12,17,12,28,0.71
2013-2-26,61.5,54.3,50.1,54.9,51.7,47.7,99,91,74,30.25,30.14,19,14,32,0.39
2013-2-27,65.4,54.6,50.5,56.8,51.8,46.0,100,91,65,30.29,30.17,16,12,25,0.25
2013-2-28,63.9,54.4,48.6,54.5,49.5,45.4,95,84,66,30.27,30.17,18,13,25,0.01
2013-3-1,59.4,52.9,49.8,51.5,48.5,46.3,95,85,71,30.23,30.14,25,19,31,0.00
2013-3-7,67.3,59.1,49.5,57.8,54.6,48.0,95,86,66,30.16,30.06,8,3,13,0.01
2013-3-8,67.1,56.6,45.6,57.3,52.7,43.4,99,87,68,30.14,29.98,13,5,18,0.01
2013-3-9,62.0,55.5,50.8,56.2,53.7,49.3,99,94,80,30.10,29.99,21,9,36,0.01
2013-3-10,61.6,56.9,52.6,59.7,55.9,52.1,100,96,85,30.13,29.99,25,10,33,0.22
2013-3-11,65.7,57.1,48.4,58.8,54.4,47.2,99,91,73,30.16,30.05,13,5,19,0.06
2013-3-12,62.7,58.3,55.4,59.9,57.0,53.9,100,95,87,30.16,30.05,10,4,14,0.04
2013-3-13,67.8,56.6,50.0,60.0,55.3,48.3,99,96,74,30.17,30.06,10,4,14,0.18
2013-3-14,64.2,56.8,47.0,58.3,54.6,46.2,99,93,76,30.19,30.06,9,2,15,0.09
2013-3-15,62.4,57.1,53.0,59.8,56.6,52.5,100,98,91,30.09,29.96,18,5,19,0.08
2013-3-16,64.7,56.6,52.7,59.3,55.8,52.7,100,97,80,30.08,29.95,6,2,11,0.03
2013-3-17,57.8,54.6,52.7,56.5,54.4,52.7,100,99,95,30.10,30.00,8,2,9,0.12
2013-3-18,66.4,55.5,51.4,60.1,54.4,51.1,100,96,80,30.12,30.02,8,3,13,0.01
2013-3-19,65.3,55.5,43.6,58.0,53.1,43.1,100,92,73,30.16,30.05,11,2,19,0.01
2013-3-20,61.5,56.0,48.0,59.7,55.0,47.4,100,97,88,30.21,30.09,16,3,20,0.28
2013-3-21,69.3,58.3,49.5,58.9,54.3,49.0,100,88,63,30.23,30.10,10,2,17,0.01
2013-3-22,66.2,56.8,48.2,58.6,54.0,46.7,99,91,66,30.17,30.03,8,2,12,0.02
2013-3-23,66.4,58.4,53.2,59.7,55.9,52.8,99,92,73,30.11,28.69,9,4,14,0.01
2013-3-24,67.1,58.6,51.2,60.4,55.0,49.2,99,88,71,30.14,30.02,11,4,18,0.00
2013-3-25,64.8,58.7,52.3,60.8,57.9,52.0,100,97,84,30.12,30.00,8,2,10,0.03
2013-3-26,69.1,59.5,55.5,60.4,57.3,54.8,100,93,70,30.13,30.01,9,6,13,0.01
2013-3-27,67.0,57.4,52.2,59.2,55.3,50.8,99,93,74,30.12,30.00,12,6,16,0.04
2013-3-28,66.1,57.1,52.2,57.9,53.4,50.5,99,88,72,30.14,30.02,16,9,25,0.00
2013-3-29,67.4,58.5,53.8,60.1,55.7,50.8,100,91,74,31.19,30.03,12,5,17,0.17
2013-3-30,63.2,57.7,55.3,59.7,56.9,55.3,100,97,86,30.12,30.02,8,2,11,0.21
2013-3-31,61.6,55.9,53.7,58.7,55.5,53.5,100,98,88,30.10,30.01,12,3,13,0.06
2013-4-1,58.5,53.1,47.5,53.9,51.2,46.1,100,93,81,30.11,29.99,16,4,24,0.08
2013-4-2,59.5,53.7,49.6,55.0,52.4,49.3,100,96,75,30.17,30.05,9,3,10,0.04
2013-4-3,60.6,53.8,47.2,55.9,52.7,45.8,100,96,81,30.20,30.10,11,4,12,0.02
2013-4-4,65.7,56.4,49.7,58.2,55.0,49.4,100,95,69,30.21,30.09,6,2,11,0.02
2013-4-5,68.1,59.3,53.5,62.2,57.3,52.9,100,93,73,30.25,30.12,8,3,12,0.01
2013-4-6,69.7,61.4,55.7,62.2,58.5,55.1,99,91,71,30.27,30.15,11,5,15,0.00
2013-4-7,71.9,60.6,55.3,61.7,57.3,54.7,99,90,66,30.28,30.14,12,6,18,0.01
2013-4-8,69.8,59.8,54.2,59.2,55.7,52.4,99,87,61,30.19,30.06,12,6,14,0.03
2013-4-9,70.4,59.5,55.0,59.8,56.2,52.8,100,90,62,30.20,30.06,10,5,14,0.04
2013-4-10,70.1,59.7,52.0,59.6,55.6,50.0,99,87,64,30.19,30.08,13,7,21,0.00
2013-4-11,70.4,60.1,55.3,63.3,58.2,54.7,100,94,75,30.17,30.03,10,4,16,0.08
2013-4-12,55.7,54.6,53.6,55.4,54.1,52.9,99,98,97,30.10,30.02,3,1,4,0.00
2013-4-16,72.0,62.2,56.2,61.9,59.2,55.1,98,90,69,30.21,30.10,12,6,15,0.00
2013-4-17,68.2,59.6,55.3,61.8,56.7,52.4,98,90,74,30.23,30.12,15,9,20,0.05
2013-4-18,71.7,59.9,54.7,61.3,56.7,52.3,99,90,60,30.23,30.14,13,8,18,0.04
2013-4-19,64.4,57.9,52.6,61.3,56.8,50.9,100,97,81,30.20,30.11,14,6,16,0.33
2013-4-20,70.1,59.6,51.8,59.8,56.7,51.5,100,91,66,30.21,30.11,9,3,12,0.05
2013-4-21,62.0,59.0,55.0,61.7,58.8,54.7,100,99,97,30.17,26.80,6,1,11,0.19
2013-4-22,68.9,60.5,53.6,61.8,58.1,52.6,100,92,74,30.18,30.05,11,3,19,0.01
2013-4-23,73.4,60.7,54.8,62.6,58.4,53.1,100,93,67,30.17,30.06,6,2,11,0.06
2013-4-24,69.9,60.3,54.2,61.6,57.0,48.0,100,89,71,30.18,30.08,12,7,17,0.01
2013-4-25,68.8,60.3,52.3,59.4,55.1,47.6,99,84,69,30.15,30.05,18,11,27,0.00
2013-4-26,68.1,59.7,54.1,58.9,55.5,51.5,97,86,69,30.14,30.05,16,10,22,0.00
2013-4-27,67.2,59.2,54.2,59.8,56.3,52.4,99,91,74,30.18,30.07,9,2,10,0.00
2013-4-28,66.7,59.3,51.4,61.7,57.5,50.9,100,94,76,30.16,29.24,10,2,15,0.16
2013-4-29,58.7,57.9,57.1,58.7,57.9,57.1,100,100,100,30.12,30.06,3,0,5,0.12
2013-5-3,69.8,61.7,56.0,59.4,56.5,51.7,97,84,61,30.20,30.09,10,3,14,0.00
2013-5-4,64.9,58.1,54.4,59.6,57.3,54.1,100,97,82,30.10,30.01,6,2,10,0.07
2013-5-5,64.5,58.4,52.7,60.6,57.6,52.3,100,97,88,30.08,29.97,11,3,14,0.01
2013-5-6,70.4,60.3,50.9,63.3,57.7,49.9,100,92,64,30.08,29.97,13,2,13,0.00
2013-5-7,74.2,61.9,50.4,64.4,58.7,49.9,100,90,57,30.09,29.99,5,1,11,0.01
2013-5-8,76.4,63.3,51.2,63.0,58.5,50.9,100,86,52,30.11,30.01,11,4,16,0.01
2013-5-9,69.0,62.5,56.3,65.6,61.7,55.0,100,97,87,30.17,30.05,6,2,9,0.31
2013-5-10,70.8,63.8,60.1,66.1,62.8,60.1,100,97,84,30.17,30.07,8,2,12,0.09
2013-5-11,72.2,63.9,58.9,65.0,61.9,58.9,100,94,78,30.15,30.06,10,6,14,0.00
2013-5-12,69.0,61.6,57.2,63.3,60.2,56.9,100,96,81,30.17,30.07,12,6,16,0.21
2013-5-13,72.2,62.2,57.3,62.5,58.6,53.8,100,89,66,30.18,30.09,12,7,18,0.05
2013-5-14,69.4,61.2,56.3,62.8,57.8,53.7,99,89,70,30.21,30.11,13,10,20,0.01
2013-5-15,68.7,60.5,55.8,61.7,57.9,54.4,100,91,71,30.23,30.14,14,9,20,0.05
2013-5-16,67.0,59.1,55.2,60.7,56.3,52.5,99,91,67,30.23,30.13,16,8,24,0.13
2013-5-17,67.7,59.5,55.1,60.5,56.8,54.3,99,91,75,30.18,30.10,12,8,17,0.04
2013-5-22,71.1,63.7,58.9,64.6,60.9,58.3,99,91,75,30.16,30.05,7,2,17,0.28
2013-5-23,70.0,62.1,55.7,63.8,59.7,54.7,100,92,77,30.15,30.04,15,8,20,0.03
2013-5-24,65.8,59.7,56.4,61.3,58.0,53.8,100,94,82,30.16,30.07,15,9,20,0.05
2013-5-25,69.1,61.5,56.4,62.7,59.3,55.4,100,93,75,30.17,30.07,16,9,22,0.68
2013-5-26,64.8,58.9,55.8,62.8,58.2,53.8,100,98,88,30.22,30.09,13,7,18,0.58
2013-5-27,64.5,58.7,57.0,62.4,58.1,56.2,100,98,91,30.22,30.13,8,4,11,0.21
2013-5-28,71.0,61.8,55.5,64.1,59.3,54.9,100,92,68,30.20,30.11,8,2,12,0.35
2013-5-29,73.0,62.3,56.6,65.4,60.4,54.9,100,94,71,30.18,30.07,11,5,19,0.04
2013-5-30,73.3,62.6,56.0,63.5,58.7,53.7,100,88,68,30.13,30.02,14,9,19,0.00
2013-5-31,68.5,62.6,58.1,66.5,61.8,56.6,100,97,91,30.13,30.03,14,8,20,0.03
2013-6-1,71.7,62.8,56.5,64.8,59.8,51.9,100,90,71,30.20,30.07,16,11,22,0.01
2013-6-2,71.8,62.9,56.0,67.1,59.7,53.5,100,90,66,30.20,30.08,17,12,25,0.01
2013-6-3,70.3,61.0,56.6,62.4,57.7,54.5,99,89,73,30.18,30.08,17,13,24,0.00
2013-6-4,72.5,61.6,54.2,63.4,57.2,53.1,99,86,64,30.15,30.03,16,12,24,0.00
2013-6-5,73.0,61.7,54.4,62.2,55.7,45.9,97,82,55,30.14,30.02,17,12,24,0.00
2013-6-6,64.5,58.0,55.3,60.9,56.2,50.6,100,94,82,30.15,30.03,18,11,25,0.08
2013-6-7,69.6,59.6,53.6,61.8,56.7,51.8,99,91,75,30.17,30.04,15,10,25,0.07
2013-6-8,68.3,60.1,55.8,61.2,58.0,55.3,100,93,76,30.18,30.07,13,8,20,0.03
2013-6-9,70.8,60.9,56.0,62.2,58.1,54.7,100,91,74,30.18,30.09,15,11,22,0.01
2013-6-10,68.5,60.6,56.0,61.8,58.0,53.8,100,92,76,30.14,30.06,18,14,25,0.00
2013-6-11,69.7,61.0,55.2,62.4,58.2,54.6,100,91,69,30.13,30.06,18,12,24,0.01
2013-6-12,72.2,60.6,55.9,63.8,57.6,53.3,99,91,62,30.20,30.07,16,12,25,0.17
2013-6-13,68.4,60.1,55.4,61.8,57.9,54.1,99,93,76,30.22,30.13,16,10,23,0.08
2013-6-14,63.7,59.0,55.8,61.6,57.4,52.6,99,94,87,30.21,30.08,18,10,24,0.07
2013-6-15,69.4,60.8,55.4,59.7,56.5,53.1,100,87,61,30.14,30.01,15,10,23,0.03
2013-6-16,72.1,60.8,53.7,61.8,57.2,51.1,100,89,63,30.14,30.02,14,7,20,0.17
2013-6-17,69.0,60.8,56.6,62.0,58.8,56.3,100,94,72,30.18,30.06,12,6,17,0.40
2013-6-18,68.2,60.4,56.7,62.3,58.7,55.8,100,94,80,30.18,30.09,13,6,20,0.28
2013-6-19,65.9,58.9,56.1,61.0,57.6,55.1,100,96,82,30.18,30.10,12,6,17,0.18
2013-6-20,71.7,60.3,55.8,62.4,57.9,53.7,100,92,67,30.16,30.06,11,6,16,0.07
2013-6-21,70.1,61.4,56.5,63.8,59.3,55.3,100,93,74,30.14,30.03,18,9,30,0.10
2013-6-22,68.3,59.8,55.7,61.8,57.9,55.4,100,94,73,30.19,30.05,19,12,28,0.04
2013-6-23,69.4,61.3,57.2,62.9,58.8,55.3,99,92,76,30.20,30.09,17,11,23,0.02
2013-6-24,72.1,61.0,55.5,61.2,57.4,53.0,100,89,66,30.18,30.09,15,10,20,0.02
2013-6-25,71.7,60.5,54.7,63.3,55.8,49.8,93,85,72,30.16,30.11,11,7,14,0.00
2013-7-3,62.7,60.4,58.1,62.6,60.2,57.5,100,99,97,30.09,30.03,9,4,15,0.24
2013-7-4,69.9,61.2,54.3,64.7,60.0,54.0,100,96,80,30.12,30.05,8,4,11,0.03
2013-7-5,73.4,63.4,56.1,65.6,60.8,55.8,100,92,69,30.11,30.02,9,5,13,0.00
2013-7-6,71.7,62.7,57.0,64.8,61.1,57.0,100,95,71,30.10,30.02,7,3,13,0.00
2013-7-7,73.1,62.6,55.7,64.0,59.3,54.2,100,89,72,30.07,29.97,13,7,17,0.01
2013-7-8,72.2,62.9,55.5,64.2,59.8,53.1,100,90,71,30.14,30.00,13,8,16,0.01
2013-7-9,73.5,63.5,57.2,65.0,59.2,55.2,100,87,63,30.24,30.10,14,10,18,0.03
2013-7-10,67.8,61.2,57.2,61.2,57.8,55.2,99,89,71,30.23,30.13,23,16,38,0.03
2013-7-11,68.3,59.8,56.7,62.5,58.2,55.4,100,94,76,30.18,30.10,18,10,24,0.17
2013-7-12,70.0,60.9,55.8,62.2,58.5,55.6,100,93,67,30.16,30.07,15,9,22,0.02
2013-7-13,67.8,58.9,55.6,61.5,57.3,54.3,99,95,82,30.10,30.02,15,10,19,0.01
2013-7-14,56.6,55.6,54.2,55.4,53.5,51.6,96,93,90,30.08,30.01,9,6,12,0.00
2013-7-15,67.7,61.2,57.1,62.3,60.1,56.8,100,96,83,30.14,30.03,8,5,12,0.07
2013-7-16,68.8,60.7,55.6,62.7,59.1,55.0,100,95,77,30.12,30.02,13,7,16,0.12
2013-7-17,70.8,59.8,57.1,63.0,58.8,57.0,100,97,75,30.11,26.58,14,7,19,0.14
2013-7-18,71.7,61.3,54.7,64.7,59.9,53.9,100,95,75,30.14,30.06,10,4,13,0.21
2013-7-19,69.0,61.8,57.6,63.5,60.0,56.8,100,94,80,30.18,30.08,11,6,16,0.15
2013-7-20,72.7,62.0,56.6,62.1,57.1,47.3,100,85,58,30.16,30.06,14,8,17,0.00
2013-7-21,71.1,63.5,55.6,65.3,59.2,51.3,100,87,60,30.13,30.02,12,6,16,0.18
2013-7-22,68.8,64.1,60.8,65.9,63.3,60.8,100,97,86,30.12,30.03,5,2,9,0.86
2013-7-23,69.3,62.6,57.2,66.3,62.1,56.9,100,98,89,30.11,30.04,9,4,12,0.02
2013-7-24,70.8,62.1,57.2,64.4,60.2,56.6,100,94,77,30.08,29.96,15,11,24,0.02
2013-7-25,70.4,63.1,56.2,63.6,59.1,55.4,99,87,73,30.04,29.96,16,12,26,0.00
2013-7-29,71.7,63.9,61.4,64.0,61.9,56.4,100,93,72,30.12,29.91,25,12,32,0.11
2013-7-30,76.1,68.0,62.8,67.6,64.2,61.6,100,89,64,30.18,30.10,12,7,18,0.06
2013-7-31,69.5,63.0,58.2,62.6,59.8,55.1,100,90,74,30.18,30.05,22,16,31,0.01
2013-8-1,70.1,61.1,57.0,61.2,57.3,54.2,98,88,68,30.17,30.06,20,13,29,0.00
2013-8-2,71.5,61.2,56.5,63.2,58.9,55.4,100,93,69,30.13,30.05,13,10,19,0.02
2013-8-3,68.4,61.2,56.6,63.7,59.4,55.1,100,94,82,30.14,30.05,12,7,19,0.06
2013-8-4,71.7,62.5,57.8,64.9,60.3,57.1,100,93,78,30.12,30.01,12,7,18,0.03
2013-8-5,67.9,62.0,58.5,64.6,60.4,57.2,99,94,84,30.11,30.02,11,7,14,0.00
2013-8-6,69.8,61.5,58.1,65.2,60.3,57.5,100,96,75,30.12,30.04,13,8,23,0.03
2013-8-7,70.4,60.4,55.6,61.6,57.6,53.1,99,91,72,30.16,30.06,14,8,19,0.00
2013-8-8,71.8,61.8,56.4,64.2,59.1,55.0,100,91,74,30.15,30.07,12,7,19,0.00
2013-8-9,77.0,65.6,54.6,68.2,60.3,45.1,100,84,58,30.14,30.02,12,7,16,0.20
2013-8-10,63.5,63.4,63.3,63.5,63.4,63.3,100,100,100,30.09,30.04,3,1,3,0.40
2013-8-12,72.2,63.6,59.4,65.9,61.4,57.3,100,93,76,30.12,30.02,18,13,24,0.01
2013-8-13,69.2,61.2,57.3,64.0,59.5,54.3,100,94,79,31.61,29.06,15,10,21,0.05
2013-8-14,72.4,62.8,56.8,64.2,60.0,55.6,100,91,74,31.40,27.42,14,11,22,0.02
2013-8-15,70.6,61.9,57.8,62.8,58.8,55.3,98,90,74,30.14,30.02,16,11,24,0.00
2013-8-16,70.4,63.3,56.9,67.6,62.0,54.7,100,96,87,30.11,30.04,13,9,22,0.06
2013-8-17,69.8,62.3,56.9,62.3,59.6,55.8,100,91,74,30.12,30.02,17,11,24,0.03
2013-8-18,72.3,62.7,56.4,59.1,54.0,49.1,96,75,48,30.12,30.00,16,9,22,0.00
2013-8-19,73.4,62.2,51.5,65.6,57.3,47.2,99,85,58,30.12,30.02,9,3,13,0.00
2013-8-20,61.2,60.6,59.7,61.2,60.4,59.4,100,99,99,30.10,30.03,0,0,2,0.01
2013-8-21,76.3,66.6,61.8,66.1,63.5,59.7,100,91,59,30.04,29.97,9,4,11,0.01
2013-8-22,72.0,63.7,59.3,64.9,61.7,59.3,100,94,74,30.05,29.97,12,6,17,0.05
2013-8-23,73.4,62.6,56.5,63.9,59.8,55.5,100,91,71,30.08,29.99,11,6,16,0.00
2013-8-24,73.0,62.1,56.8,64.2,58.6,55.1,99,89,66,30.12,30.00,16,11,21,0.00
2013-8-25,72.7,63.7,58.0,65.0,60.4,56.0,98,89,75,30.16,30.06,15,10,21,0.00
2013-8-26,68.2,61.4,57.9,62.4,58.5,53.4,98,90,78,30.18,30.09,15,10,22,0.00
2013-8-27,74.0,62.8,55.9,60.7,55.8,49.3,98,79,56,30.17,30.06,16,10,27,0.00
2013-8-28,74.8,64.3,57.4,65.6,59.3,50.6,99,84,69,30.09,29.95,11,5,14,0.01
2013-8-29,72.2,62.6,55.9,62.1,59.5,54.3,100,90,67,30.05,29.94,11,5,16,0.03
2013-8-30,73.3,62.2,55.2,64.0,59.0,53.5,100,90,64,30.13,30.02,8,3,12,0.05
2013-8-31,70.8,61.5,57.1,62.6,56.8,-99.9,100,88,58,30.12,29.15,16,-4,22,0.12
2013-9-1,73.4,43.4,56.5,64.4,9.5,-99.9,99,60,64,30.46,29.98,16,-304,22,0.00
2013-9-2,72.2,53.0,56.0,63.3,32.7,-99.9,100,72,70,30.12,30.00,14,-155,22,0.00
2013-9-3,72.2,32.7,56.1,58.2,-24.7,-99.9,95,32,43,30.09,29.98,12,-507,22,0.00
2013-9-4,72.9,32.1,60.4,60.9,-26.1,-99.9,90,32,50,30.08,29.98,9,-526,16,0.00
2013-9-5,71.0,19.4,60.6,51.4,-56.7,-99.9,62,15,45,30.10,30.02,6,-708,9,0.00
2013-9-9,71.0,38.2,62.6,62.4,-8.6,-99.9,90,45,68,30.15,30.06,12,-426,15,0.00
2013-9-10,73.0,32.6,63.1,63.5,-24.3,-99.9,92,35,65,30.13,29.99,16,-523,22,0.00
2013-9-11,75.5,31.9,64.3,64.2,-27.4,-99.9,88,33,66,30.10,29.98,21,-548,21,0.00
2013-9-12,75.7,30.7,64.4,66.8,-28.9,-99.9,97,35,71,30.04,29.92,11,-566,18,0.02
2013-9-13,70.3,30.8,61.6,64.3,-23.7,-99.9,98,42,80,30.00,28.62,11,-526,15,0.05
2013-9-14,75.2,31.2,64.0,66.7,-26.4,-99.9,96,37,70,30.01,29.89,9,-548,15,0.00
2013-9-15,71.8,33.2,59.3,61.8,-21.5,-99.9,91,38,66,30.06,29.93,13,-504,24,0.00
2013-9-16,72.6,32.8,62.2,62.4,-24.3,-99.9,88,34,61,30.10,30.01,12,-519,20,0.00
2013-9-17,69.4,29.7,59.3,64.4,-25.7,-99.9,98,41,78,30.10,29.99,11,-536,15,0.07
2013-9-18,72.2,31.5,60.7,62.5,-26.2,-99.9,91,34,61,30.09,29.98,12,-532,16,0.00
2013-9-19,71.9,28.4,60.7,63.1,-30.6,-99.9,98,36,66,30.11,29.98,12,-563,18,0.03
2013-9-20,68.7,31.1,59.0,62.1,-23.3,-99.9,95,40,73,30.11,30.03,16,-512,28,0.00
2013-9-21,70.2,28.5,57.6,63.0,-27.6,-99.9,99,41,78,30.12,30.02,11,-546,18,0.06
2013-9-22,72.3,31.4,57.4,63.9,-22.9,-99.9,98,41,69,30.11,29.99,14,-515,22,0.02
2013-9-23,71.6,30.8,59.7,60.4,-26.3,-99.9,95,36,65,30.07,26.74,15,-532,23,0.00
2013-9-24,69.1,29.5,59.4,62.3,-27.9,-99.9,98,38,72,30.10,29.97,11,-547,18,0.05
2013-9-25,73.3,31.4,57.8,63.4,-23.0,-99.9,98,40,69,30.12,30.01,11,-517,14,0.07
2013-9-26,70.7,38.8,62.5,63.4,-5.4,-99.9,95,50,72,30.08,30.00,10,-411,15,0.03
2013-10-1,-200.0,0.0,200.0,-99.9,-99.9,-99.9,0,0,100,0.00,-32.77,0,-999,12,0.00
2013-10-2,-200.0,0.0,200.0,-99.9,-99.9,-99.9,0,0,100,0.00,-32.77,0,-999,12,0.00
2013-10-3,70.5,41.7,61.0,63.4,2.4,-99.9,98,55,76,30.08,29.97,11,-361,15,0.01
2013-10-4,69.3,29.6,58.5,64.2,-26.3,-99.9,100,40,79,30.09,29.97,16,-538,17,0.03
2013-10-5,70.1,29.5,58.2,63.8,-25.9,-99.9,99,42,78,30.09,29.97,13,-537,19,0.03
2013-10-6,70.6,31.0,58.3,63.6,-23.8,-99.9,99,40,73,30.09,29.98,10,-523,15,0.00
2013-10-7,70.3,28.8,57.1,62.4,-27.3,-99.9,100,40,74,30.15,30.03,11,-542,15,0.01
2013-10-8,69.2,29.6,58.5,63.7,-25.4,-99.9,99,42,80,30.14,30.04,11,-535,16,0.00
2013-10-9,70.0,29.2,58.6,63.1,-27.7,-99.9,100,39,76,30.11,30.00,14,-546,16,0.00
2013-10-10,72.8,29.4,60.2,65.0,-28.5,-99.9,96,38,75,30.08,29.97,9,-557,14,0.00
2013-10-11,73.1,29.2,59.1,63.3,-29.7,-99.9,99,36,63,30.12,29.98,10,-561,14,0.00
2013-10-12,74.8,31.4,59.8,65.8,-25.1,-99.9,98,39,71,30.09,29.97,9,-540,14,0.00
2013-10-13,74.2,26.9,59.8,65.0,-34.4,-99.9,100,35,72,30.07,29.94,9,-595,12,0.00
2013-10-14,71.3,27.6,58.8,62.7,-32.2,-99.9,98,36,69,30.05,29.92,8,-577,12,0.00
2013-10-15,72.0,29.5,59.7,63.7,-27.9,-99.9,97,38,70,31.11,29.94,10,-549,15,0.00
2013-10-16,72.7,30.2,58.4,63.8,-26.8,-99.9,95,38,71,30.07,29.95,10,-544,14,0.00
2013-10-17,68.7,27.4,54.1,64.7,-31.8,-99.9,100,38,80,30.08,29.98,5,-578,10,0.00
2013-10-18,74.6,20.7,54.5,66.4,-50.4,-99.9,97,26,69,30.07,29.91,9,-695,13,0.00
2013-10-19,73.8,21.4,60.8,67.1,-49.0,-99.9,99,26,68,29.97,29.86,8,-686,14,0.00
2013-10-20,70.3,25.4,61.1,65.2,-37.6,-99.9,98,34,81,30.02,29.90,8,-617,11,0.00
2013-10-21,69.9,20.7,58.0,64.6,-48.6,-99.9,100,28,80,30.05,29.93,7,-684,12,0.00
2013-10-22,71.3,27.6,60.0,65.7,-31.9,-99.9,100,38,78,30.05,29.94,9,-582,13,0.00
2013-10-23,72.0,27.5,58.4,64.2,-32.2,-99.9,100,37,76,30.06,29.97,10,-579,13,0.00
2013-10-24,71.7,28.7,58.7,63.6,-30.5,-99.9,96,36,70,30.07,29.96,11,-564,14,0.00
2013-10-25,71.3,22.6,64.3,65.5,-44.7,-99.9,95,30,80,30.10,29.97,9,-661,10,0.00
2013-10-26,73.0,27.4,54.4,66.5,-33.5,-99.9,99,35,73,30.12,29.99,8,-592,12,0.00
2013-10-27,71.9,24.2,61.6,67.2,-41.3,-99.9,100,32,80,30.10,29.97,5,-643,9,0.00
2013-10-28,71.5,31.1,59.4,65.0,-24.8,-99.9,94,39,77,30.09,29.95,16,-532,24,0.00
2013-10-29,71.3,30.0,57.4,60.9,-28.0,-99.9,98,35,58,30.14,30.00,13,-542,19,0.00
2013-10-30,70.3,26.8,58.4,63.5,-32.6,-99.9,99,38,72,30.19,30.06,8,-581,11,0.14
2013-10-31,71.3,29.8,57.7,64.1,-26.9,-99.9,98,39,72,30.18,30.05,14,-543,21,0.00
2013-11-1,71.1,28.2,58.0,63.6,-31.1,-99.9,99,36,71,30.12,30.01,15,-566,27,0.09
2013-11-2,69.4,27.8,57.6,63.3,-29.3,-99.9,100,40,75,30.14,30.02,14,-554,21,0.06
2013-11-3,65.7,26.6,58.8,59.5,-33.1,-99.9,94,35,73,30.13,30.01,16,-568,28,0.00
2013-11-4,68.3,23.0,59.9,62.5,-43.0,-99.9,97,31,76,30.11,29.99,11,-642,16,0.00
2013-11-5,68.8,26.8,60.0,65.3,-32.4,-99.9,100,39,86,30.06,29.97,10,-583,13,0.09
2013-11-6,69.2,27.5,59.2,65.1,-31.6,-99.9,97,38,84,30.05,29.93,7,-579,10,0.01
2013-11-7,71.4,28.6,57.5,66.0,-28.9,-99.9,100,40,78,30.07,29.94,6,-564,9,0.00
2013-11-8,69.2,28.3,59.6,65.2,-29.2,-99.9,99,40,84,30.06,29.91,11,-563,14,0.00
2013-11-9,69.4,23.8,60.5,63.5,-43.3,-99.9,91,27,57,30.00,29.86,7,-640,12,0.00
2013-11-10,68.9,27.5,57.6,60.4,-29.7,-99.9,99,40,68,30.02,28.55,15,-553,21,0.10
2013-11-11,63.0,23.9,56.0,59.7,-36.3,-99.9,100,39,87,30.06,29.93,15,-591,23,0.03
2013-11-12,63.2,19.3,56.2,60.2,-49.5,-99.9,99,29,87,30.10,29.78,6,-681,6,0.00
2013-11-13,67.2,43.3,55.5,62.7,12.0,-99.9,100,67,82,30.10,26.59,7,-304,14,0.12
2013-11-14,65.6,63.2,61.3,65.1,63.1,61.3,100,100,93,30.11,29.99,10,2,14,0.65
2013-11-15,68.7,61.8,57.2,64.2,60.9,56.9,100,97,82,30.17,30.05,0,0,0,0.00
2013-11-16,78.0,62.1,47.9,66.1,58.3,46.5,100,89,45,30.17,28.74,0,0,0,0.01
2013-11-17,73.5,62.3,54.7,64.1,59.7,54.1,100,92,68,30.12,29.98,0,0,0,0.00
2013-11-18,72.0,61.3,52.0,64.8,59.5,51.6,100,94,78,30.09,29.98,0,0,0,0.00
2013-11-19,68.9,61.5,52.3,64.0,59.6,51.8,100,94,80,30.09,29.85,0,0,0,0.00
2013-11-20,69.7,61.6,56.9,62.7,59.3,56.3,100,93,68,30.10,29.98,0,0,0,0.02
2013-11-21,67.3,61.7,56.9,62.7,59.3,55.9,100,92,73,30.12,30.01,0,0,0,0.00
2013-11-22,72.2,60.5,50.3,62.9,56.5,47.9,100,88,57,30.14,30.01,0,0,0,0.00
2013-11-23,68.6,58.3,51.4,61.7,56.3,50.0,100,93,76,30.09,29.98,0,0,0,0.01
2013-11-24,66.1,58.4,53.1,59.3,55.8,50.5,100,92,74,30.08,28.67,0,0,0,0.06
2013-11-25,67.6,58.9,53.3,61.0,56.0,52.7,99,91,72,30.17,30.04,0,0,0,0.00
2013-11-26,70.3,60.6,54.6,62.6,57.2,53.1,99,89,67,30.21,30.07,0,0,0,0.00
2013-11-27,72.3,60.5,53.0,62.2,56.5,51.1,99,88,62,30.19,30.03,0,0,0,0.00
2013-11-28,70.7,59.8,52.8,59.4,55.6,51.7,100,87,57,30.14,30.00,0,0,0,0.01
2013-11-29,63.2,58.5,51.3,61.7,58.0,49.6,100,98,88,30.13,30.03,0,0,0,0.57
2013-11-30,63.4,59.5,55.8,59.9,58.2,55.8,100,96,84,30.16,30.03,0,0,0,0.04
2013-12-1,64.3,59.5,56.1,61.6,58.7,55.0,100,97,84,30.15,30.03,0,0,0,0.12
2013-12-2,63.9,58.9,54.4,62.1,58.7,54.0,100,99,93,30.13,28.72,0,0,0,0.09
2013-12-3,64.2,57.7,52.5,60.6,56.8,52.0,100,97,87,30.11,29.98,0,0,0,0.06
2013-12-4,66.0,56.1,50.6,58.3,54.1,49.2,100,93,77,30.12,30.05,0,0,0,0.01
2013-12-5,62.0,58.4,51.2,61.4,58.0,50.4,100,99,95,30.14,30.01,0,0,0,0.07
2013-12-6,67.6,58.1,50.0,60.8,55.5,49.2,100,92,69,30.14,30.02,0,0,0,0.01
2013-12-7,67.2,60.0,52.0,62.2,58.2,51.7,100,94,79,30.14,30.01,0,0,0,0.06
2013-12-8,66.8,61.4,58.9,64.7,60.9,58.9,100,98,81,30.18,28.75,0,0,0,0.49
2013-12-9,70.6,62.0,56.5,65.3,61.0,56.4,100,97,78,30.21,30.07,0,0,0,0.03
2013-12-10,70.3,60.7,56.1,62.5,57.4,51.3,100,89,64,30.14,30.01,0,0,0,0.00
2013-12-11,67.8,58.7,53.9,61.7,56.8,53.3,100,94,76,30.17,30.03,0,0,0,0.01
2013-12-12,69.9,59.6,53.0,64.1,57.7,52.2,98,94,80,30.20,30.05,0,0,0,0.00
2013-12-13,62.9,57.2,51.9,61.7,56.7,50.2,100,98,92,30.19,30.08,0,0,0,0.03
2013-12-14,64.6,57.0,47.9,60.1,56.0,47.4,100,96,83,30.14,30.01,0,0,0,0.07
2013-12-15,65.9,56.4,46.7,61.7,54.8,45.7,100,95,74,30.10,30.00,0,0,0,0.01
2013-12-16,67.7,57.5,47.4,61.1,56.0,47.4,100,95,72,30.10,28.66,0,0,0,0.04
2013-12-17,67.9,57.8,49.8,60.4,54.6,45.4,100,90,64,30.14,26.73,0,0,0,0.02
2013-12-18,67.8,55.9,47.9,59.9,53.0,45.8,99,90,67,30.19,30.06,0,0,0,0.06
2013-12-19,66.8,56.2,47.3,60.0,54.3,46.8,100,94,77,30.21,30.10,0,0,0,0.19
2013-12-20,66.8,59.1,55.2,61.7,57.6,54.7,100,95,80,30.17,30.06,0,0,0,0.12
2013-12-21,68.6,60.0,54.1,62.1,58.2,53.0,100,94,75,30.11,30.00,0,0,0,0.38
2013-12-22,68.1,57.3,47.8,61.7,54.1,45.8,100,90,71,30.12,28.76,0,0,0,0.00
2013-12-23,68.3,59.5,55.1,61.1,57.1,53.4,100,92,72,30.15,30.02,0,0,0,0.01
2013-12-24,66.7,59.4,55.3,59.3,55.6,52.1,98,88,73,30.14,28.78,0,0,0,0.00
2013-12-25,68.7,60.1,55.2,61.3,56.6,51.1,99,89,72,30.14,30.01,0,0,0,0.01
2013-12-26,66.4,58.6,54.9,57.8,52.9,48.8,96,82,71,30.08,29.99,0,0,0,0.01